EW9318 Weather Reports


time (UTC)temp
F
wind
direction
speed
knots
gust
knots
rain 1hr
in
rain 24hr
in
rain mn
in
humidity
%
barometer
mb
20260507033515 46 0.0 1.7 0.00 0.00 0.00 56 1012.1
20260507033015 46 277 0.0 1.7 0.00 0.00 0.00 57 1012.1
20260507032515 46 277 0.0 3.5 0.00 0.00 0.00 57 1012.2
20260507032035 46 276 0.9 3.5 0.00 0.00 0.00 53 1012.1
20260507031515 46 287 0.9 2.6 0.00 0.00 0.00 53 1012.1
20260507031015 46 280 0.9 1.7 0.00 0.00 0.00 54 1012.1
20260507030515 47 325 0.9 2.6 0.00 0.00 0.00 52 1012.1
20260507030015 47 335 1.7 2.6 0.00 0.00 0.00 54 1012.2
20260507025515 47 287 0.9 2.6 0.00 0.00 0.00 51 1012.2
20260507025035 47 284 0.9 1.7 0.00 0.00 0.00 52 1012.3
20260507024515 47 304 0.9 3.5 0.00 0.00 0.00 51 1012.2
20260507024015 47 311 1.7 3.5 0.00 0.00 0.00 49 1012.2
20260507023515 47 319 1.7 3.5 0.00 0.00 0.00 49 1012.2
20260507023015 47 307 1.7 3.5 0.00 0.00 0.00 49 1012.2
20260507022515 47 317 0.9 2.6 0.00 0.00 0.00 48 1012.1
20260507022016 48 316 0.9 2.6 0.00 0.00 0.00 48 1012.0
20260507021515 48 324 1.7 3.5 0.00 0.00 0.00 48 1012.0
20260507021016 48 329 1.7 3.5 0.00 0.00 0.00 48 1012.0
20260507020515 48 320 1.7 3.5 0.00 0.00 0.00 48 1012.0
20260507020016 48 309 0.9 3.5 0.00 0.00 0.00 47 1011.8
20260507015515 48 307 1.7 3.5 0.00 0.00 0.00 46 1011.8
20260507015016 48 311 1.7 3.5 0.00 0.00 0.00 46 1011.7
20260507014515 48 324 1.7 3.5 0.00 0.00 0.00 46 1011.6
20260507014015 48 323 1.7 3.5 0.00 0.00 0.00 46 1011.7
20260507013515 49 319 1.7 2.6 0.00 0.00 0.00 46 1011.7
20260507013056 49 332 1.7 3.5 0.00 0.00 0.00 46 1011.6
20260507012516 49 309 1.7 3.5 0.00 0.00 0.00 46 1011.6
20260507012036 49 290 0.9 2.6 0.00 0.00 0.00 45 1011.6
20260507011515 49 295 1.7 2.6 0.00 0.00 0.00 44 1011.6
20260507011017 49 298 0.9 3.5 0.00 0.00 0.00 44 1011.6
20260507010516 49 296 1.7 3.5 0.00 0.00 0.00 44 1011.5
20260507010017 49 280 1.7 3.5 0.00 0.00 0.00 44 1011.5
20260507005517 49 273 1.7 3.5 0.00 0.00 0.00 44 1011.6
20260507005017 49 273 1.7 6.1 0.00 0.00 0.00 43 1011.4
20260507004518 50 285 2.6 6.1 0.00 0.00 0.00 42 1011.5
20260507004018 50 289 2.6 5.2 0.00 0.00 0.00 42 1011.4
20260507003537 50 290 1.7 3.5 0.00 0.00 0.00 42 1011.4
20260507003017 50 279 1.7 5.2 0.00 0.00 0.00 42 1011.4
20260507002517 50 273 2.6 7.0 0.00 0.00 0.00 42 1011.2
20260507002037 50 275 3.5 8.7 0.00 0.00 0.00 42 1011.2
20260507001517 50 273 3.5 8.7 0.00 0.00 0.00 42 1011.1
20260507001017 50 275 2.6 7.0 0.00 0.00 0.00 42 1011.1
20260507000518 50 284 3.5 8.7 0.00 0.00 0.00 41 1011.1
20260507000018 50 293 5.2 8.7 0.00 0.00 0.00 41 1011.0
20260506235517 50 303 3.5 7.0 0.00 0.00 0.00 41 1011.0
20260506235017 50 308 2.6 5.2 0.00 0.00 0.00 41 1011.1
20260506234518 51 288 2.6 8.7 0.00 0.00 0.00 40 1011.0
20260506234018 51 275 5.2 8.7 0.00 0.00 0.00 39 1011.0
20260506233537 51 287 3.5 8.7 0.00 0.00 0.00 40 1011.0
20260506233016 51 288 4.3 10.4 0.00 0.00 0.00 40 1010.9
20260506232517 51 318 5.2 10.4 0.00 0.00 0.00 40 1011.0
20260506232016 51 300 5.2 10.4 0.00 0.00 0.00 39 1011.0
20260506231518 51 288 6.1 9.6 0.00 0.00 0.00 39 1011.0
20260506231017 51 289 5.2 12.2 0.00 0.00 0.00 39 1011.0
20260506230517 51 307 7.0 12.2 0.00 0.00 0.00 39 1011.0
20260506230017 52 300 5.2 10.4 0.00 0.00 0.00 38 1011.0
20260506225517 52 297 7.0 10.4 0.00 0.00 0.00 37 1011.0
20260506225037 53 264 5.2 10.4 0.00 0.00 0.00 37 1011.1
20260506224517 53 251 6.1 14.8 0.00 0.00 0.00 38 1011.1
20260506224018 53 275 7.8 14.8 0.00 0.00 0.00 37 1011.2
20260506223517 53 257 6.1 13.0 0.00 0.00 0.00 38 1011.1
20260506223017 52 260 7.8 14.8 0.00 0.00 0.00 39 1011.1
20260506222518 53 249 8.7 14.8 0.00 0.00 0.00 38 1011.1
20260506222016 53 287 9.6 17.4 0.00 0.00 0.00 37 1011.2
20260506221517 53 319 9.6 17.4 0.00 0.00 0.00 37 1011.1
20260506221016 52 305 7.0 13.0 0.00 0.00 0.00 38 1011.1
20260506220516 52 305 9.6 13.0 0.00 0.00 0.00 37 1011.1
20260506220016 52 293 7.0 12.2 0.00 0.00 0.00 37 1011.1
20260506215518 52 284 7.0 13.9 0.00 0.00 0.00 38 1011.1
20260506215017 52 304 8.7 13.9 0.00 0.00 0.00 37 1011.0
20260506214537 52 305 7.0 11.3 0.00 0.00 0.00 38 1010.9
20260506214016 52 301 7.0 13.9 0.00 0.00 0.00 37 1011.0
20260506213516 52 310 7.8 13.9 0.00 0.00 0.00 37 1011.1
20260506213017 52 308 7.0 12.2 0.00 0.00 0.00 38 1011.1
20260506212537 53 309 8.7 13.9 0.00 0.00 0.00 37 1011.0
20260506212016 53 317 8.7 14.8 0.00 0.00 0.00 36 1011.1
20260506211516 53 295 8.7 14.8 0.00 0.00 0.00 35 1011.0
20260506211017 53 290 7.8 13.9 0.00 0.00 0.00 37 1011.1
20260506210517 53 263 8.7 14.8 0.00 0.00 0.00 41 1011.1
20260506210016 52 293 8.7 14.8 0.00 0.00 0.00 36 1011.2
20260506205516 52 298 7.8 16.5 0.00 0.00 0.00 36 1011.1
20260506205016 52 288 9.6 16.5 0.00 0.00 0.00 37 1011.3
20260506204517 52 293 7.8 13.9 0.00 0.00 0.00 37 1011.3
20260506204036 52 289 7.8 16.5 0.00 0.00 0.00 37 1011.3
20260506203516 52 305 10.4 16.5 0.00 0.00 0.00 36 1011.3
20260506203016 52 276 7.8 16.5 0.00 0.00 0.00 39 1011.3
20260506202516 52 285 7.0 16.5 0.00 0.00 0.00 36 1011.3
20260506202016 52 267 10.4 26.9 0.00 0.00 0.00 36 1011.5
20260506201517 53 261 9.6 26.9 0.00 0.00 0.00 36 1011.6
20260506201016 53 268 5.2 13.0 0.00 0.00 0.00 40 1011.5
20260506200556 53 258 8.7 13.0 0.00 0.00 0.00 38 1011.7
20260506200016 53 260 10.4 13.0 0.00 0.00 0.00 37 1011.6
20260506195516 52 294 9.6 13.9 0.00 0.00 0.00 39 1011.7
20260506195016 52 314 7.8 16.5 0.00 0.00 0.00 35 1011.7
20260506194536 52 306 8.7 16.5 0.00 0.00 0.00 37 1011.8
20260506194016 52 308 7.8 15.6 0.00 0.00 0.00 36 1011.7
20260506193517 51 300 9.6 15.6 0.00 0.00 0.00 36 1011.8
20260506193016 51 296 9.6 14.8 0.00 0.00 0.00 36 1011.7
20260506192516 51 286 8.7 13.9 0.00 0.00 0.00 36 1011.7
20260506192037 51 286 6.1 13.9 0.00 0.00 0.00 35 1011.7
20260506191516 52 305 9.6 13.9 0.00 0.00 0.00 35 1011.8
20260506191017 52 274 8.7 13.9 0.00 0.00 0.00 35 1011.6
20260506190516 52 282 7.8 15.6 0.00 0.00 0.00 37 1011.6
20260506190016 51 290 8.7 15.6 0.00 0.00 0.00 36 1011.7
20260506185516 51 283 8.7 15.6 0.00 0.00 0.00 38 1011.8
20260506185016 51 300 9.6 15.6 0.00 0.00 0.00 36 1011.9
20260506184517 52 279 9.6 14.8 0.00 0.00 0.00 37 1011.9
20260506184016 51 262 8.7 14.8 0.00 0.00 0.00 36 1011.8
20260506183516 51 281 8.7 13.9 0.00 0.00 0.00 36 1011.9
20260506183016 52 287 7.8 14.8 0.00 0.00 0.00 37 1011.7
20260506182516 52 256 8.7 17.4 0.00 0.00 0.00 39 1011.7
20260506182016 51 295 10.4 17.4 0.00 0.00 0.00 40 1011.8
20260506181516 51 310 7.8 15.6 0.00 0.00 0.00 38 1011.6
20260506181016 51 313 10.4 15.6 0.00 0.00 0.00 36 1011.9
20260506180517 51 279 9.6 14.8 0.00 0.00 0.00 39 1011.7
20260506180036 51 279 7.8 14.8 0.00 0.00 0.00 39 1011.7
20260506175516 51 307 7.0 13.0 0.00 0.00 0.00 37 1011.8
20260506175016 51 311 5.2 13.0 0.00 0.00 0.00 38 1011.6
20260506174517 51 312 7.8 13.0 0.00 0.00 0.00 38 1011.7
20260506174016 51 269 5.2 13.9 0.00 0.00 0.00 37 1011.8
20260506173516 51 291 7.8 13.9 0.00 0.00 0.00 37 1011.7
20260506173017 51 275 7.0 16.5 0.00 0.00 0.00 38 1011.8
20260506172536 51 272 8.7 16.5 0.00 0.00 0.00 38 1011.9
20260506172016 51 284 8.7 13.9 0.00 0.00 0.00 37 1011.8
20260506171516 52 287 8.7 13.9 0.00 0.00 0.00 37 1011.8
20260506171017 51 321 7.8 13.0 0.00 0.00 0.00 39 1011.9
20260506170516 51 306 7.0 13.0 0.00 0.00 0.00 38 1011.9
20260506170037 50 295 5.2 9.6 0.00 0.00 0.00 38 1011.9
20260506165516 50 272 7.0 14.8 0.00 0.00 0.00 39 1012.0
20260506165016 50 301 6.1 14.8 0.00 0.00 0.00 38 1011.9
20260506164516 50 314 5.2 11.3 0.00 0.00 0.00 43 1011.9
20260506164016 50 321 7.8 12.2 0.00 0.00 0.00 40 1011.9
20260506163516 50 344 6.1 13.0 0.00 0.00 0.00 40 1011.9
20260506163016 50 344 8.7 14.8 0.00 0.00 0.00 42 1011.9
20260506162516 50 323 9.6 15.6 0.00 0.00 0.00 38 1011.8
20260506162016 51 331 5.2 15.6 0.00 0.00 0.00 39 1011.8
20260506161516 51 9 6.1 13.9 0.00 0.00 0.00 42 1011.8
20260506161037 50 310 7.8 13.9 0.00 0.00 0.00 40 1011.9
20260506160516 50 280 7.8 13.0 0.00 0.00 0.00 39 1011.9
20260506160016 50 291 7.8 13.0 0.00 0.00 0.00 39 1011.9
20260506155536 50 318 4.3 11.3 0.00 0.00 0.00 39 1012.0
20260506155016 50 324 6.1 11.3 0.00 0.00 0.00 39 1012.0
20260506154536 50 292 5.2 10.4 0.00 0.00 0.00 40 1011.9
20260506154016 50 314 7.0 13.9 0.00 0.00 0.00 43 1011.9
20260506153516 50 308 9.6 13.9 0.00 0.00 0.00 38 1012.0
20260506153016 50 278 6.1 10.4 0.00 0.00 0.00 37 1011.8
20260506152536 51 1 5.2 9.6 0.00 0.00 0.00 42 1011.9
20260506152037 50 323 3.5 7.8 0.00 0.00 0.00 41 1011.9
20260506151516 50 319 2.6 7.0 0.00 0.00 0.00 44 1011.9
20260506151016 50 38 2.6 7.0 0.00 0.00 0.00 42 1012.0
20260506150536 49 16 2.6 7.8 0.00 0.00 0.00 43 1012.0
20260506150016 48 316 3.5 7.8 0.00 0.00 0.00 41 1011.9
20260506145517 48 346 4.3 11.3 0.00 0.00 0.00 42 1012.0
20260506145016 48 306 6.1 11.3 0.00 0.00 0.00 40 1011.9
20260506144516 48 282 5.2 8.7 0.00 0.00 0.00 41 1011.8
20260506144016 48 52 0.9 5.2 0.00 0.00 0.00 44 1011.7
20260506143516 48 325 1.7 7.0 0.00 0.00 0.00 44 1011.7
20260506143036 48 308 2.6 8.7 0.00 0.00 0.00 43 1011.7
20260506142515 49 332 3.5 8.7 0.00 0.00 0.00 45 1011.6
20260506142016 49 301 0.9 7.0 0.00 0.00 0.00 45 1011.5
20260506141537 49 68 0.9 4.3 0.00 0.00 0.00 47 1011.5
20260506141016 48 60 0.9 2.6 0.00 0.00 0.00 50 1011.5
20260506140516 48 73 0.9 3.5 0.00 0.00 0.00 51 1011.5
20260506140017 47 102 0.9 3.5 0.00 0.00 0.00 51 1011.4
20260506135516 47 93 1.7 5.2 0.00 0.00 0.00 52 1011.4
20260506135037 46 53 2.6 6.1 0.00 0.00 0.00 52 1011.5
20260506134536 46 13 1.7 7.0 0.00 0.00 0.00 55 1011.4
20260506134037 46 27 2.6 7.0 0.00 0.00 0.00 56 1011.3
20260506133536 45 16 2.6 6.1 0.00 0.00 0.00 58 1011.3
20260506133016 45 33 3.5 7.8 0.00 0.00 0.00 57 1011.2
20260506132516 45 39 4.3 7.8 0.00 0.00 0.00 58 1011.0
20260506132017 45 50 2.6 7.0 0.00 0.00 0.00 59 1011.0
20260506131515 45 32 3.5 7.8 0.00 0.00 0.00 59 1011.1
20260506131015 45 43 4.3 7.8 0.00 0.00 0.00 60 1011.1
20260506130516 45 43 3.5 7.8 0.00 0.00 0.00 60 1011.1
20260506130016 45 25 3.5 7.8 0.00 0.00 0.00 63 1011.1
20260506125515 45 31 3.5 7.0 0.00 0.00 0.00 63 1011.0
20260506125037 44 60 2.6 6.1 0.00 0.00 0.00 65 1011.1
20260506124015 43 46 2.6 7.0 0.00 0.00 0.00 68 1011.1
20260506123537 43 4 2.6 7.0 0.00 0.00 0.00 68 1011.1
20260506123017 42 15 2.6 6.1 0.00 0.00 0.00 71 1011.1
20260506122516 41 2 2.6 6.1 0.00 0.00 0.00 74 1011.1
20260506122015 40 355 0.0 4.3 0.00 0.00 0.00 79 1010.9
20260506121515 40 297 0.9 2.6 0.00 0.00 0.00 79 1010.9
20260506121037 39 270 0.9 3.5 0.00 0.00 0.00 82 1010.8
20260506120516 39 266 1.7 3.5 0.00 0.00 0.00 83 1010.7
20260506120015 38 255 2.6 3.5 0.00 0.00 0.00 85 1010.7
20260506115515 38 256 1.7 3.5 0.00 0.00 0.00 87 1010.5
20260506115036 37 252 1.7 3.5 0.00 0.00 0.00 87 1010.4
20260506114557 36 253 1.7 2.6 0.00 0.00 0.00 87 1010.3
20260506114016 36 222 1.7 2.6 0.00 0.00 0.00 87 1010.2
20260506113515 35 142 0.0 1.7 0.00 0.00 0.00 85 1010.1
20260506113015 35 142 0.0 0.9 0.00 0.00 0.00 85 1009.9
20260506112515 35 0.0 0.0 0.00 0.00 0.00 84 1009.8
20260506112015 35 0.0 0.9 0.00 0.00 0.00 84 1009.8
20260506111515 35 141 0.0 0.9 0.00 0.00 0.00 83 1009.6
20260506111015 36 142 0.0 1.7 0.00 0.00 0.00 83 1009.5
20260506110515 36 142 0.9 1.7 0.00 0.00 0.00 83 1009.5
20260506110036 36 142 0.9 2.6 0.00 0.00 0.00 82 1009.5
20260506105516 36 141 0.0 2.6 0.00 0.00 0.00 82 1009.4
20260506105015 36 275 0.0 2.6 0.00 0.00 0.00 82 1009.2
20260506104515 36 275 0.9 2.6 0.00 0.00 0.00 82 1009.2
20260506104015 36 268 1.7 2.6 0.00 0.00 0.00 82 1009.3
20260506103515 36 279 1.7 2.6 0.00 0.00 0.00 82 1009.3
20260506103015 37 290 1.7 2.6 0.00 0.00 0.00 82 1009.3
20260506102515 37 298 0.9 1.7 0.00 0.00 0.00 82 1009.4
20260506102035 37 300 0.9 2.6 0.00 0.00 0.00 82 1009.3
20260506101536 37 296 0.9 2.6 0.00 0.00 0.00 82 1009.6
20260506101017 37 287 1.7 2.6 0.00 0.00 0.00 82 1009.5
20260506100535 37 297 0.9 2.6 0.00 0.00 0.00 83 1009.4
20260506100015 37 308 0.9 2.6 0.00 0.00 0.00 83 1009.4
20260506095515 37 303 0.9 2.6 0.00 0.00 0.00 83 1009.3
20260506095036 37 291 0.9 3.5 0.00 0.00 0.00 83 1009.3
20260506094515 37 275 1.7 3.5 0.00 0.00 0.00 83 1009.4
20260506094038 37 274 1.7 3.5 0.00 0.00 0.00 83 1009.4
20260506093516 37 291 0.9 2.6 0.00 0.00 0.00 82 1009.3
20260506093015 37 280 0.9 2.6 0.00 0.00 0.00 83 1009.2
20260506092535 37 281 0.9 2.6 0.00 0.00 0.00 82 1009.2
20260506092015 37 298 0.0 1.7 0.00 0.00 0.00 81 1009.1
20260506091535 37 0.0 0.0 0.00 0.00 0.00 81 1008.9
20260506091015 37 0.0 0.0 0.00 0.00 0.00 81 1008.9
20260506090515 37 0.0 0.0 0.00 0.00 0.00 81 1008.8
20260506090015 37 0.0 0.0 0.00 0.00 0.00 81 1008.8
20260506085515 37 0.0 0.0 0.00 0.00 0.00 81 1008.8
20260506085015 37 0.0 0.0 0.00 0.00 0.00 80 1008.7
20260506084515 37 0.0 0.0 0.00 0.00 0.00 79 1008.6
20260506084015 37 0.0 0.0 0.00 0.00 0.00 77 1008.6
20260506083515 38 0.0 0.0 0.00 0.00 0.00 77 1008.6
20260506083138 38 0.0 0.0 0.00 0.00 0.00 78 1008.6
20260506082515 38 0.0 0.0 0.00 0.00 0.00 77 1008.5
20260506082015 38 0.0 0.0 0.00 0.00 0.00 77 1008.5
20260506081515 38 0.0 0.0 0.00 0.00 0.00 76 1008.5
20260506081016 39 0.0 0.0 0.00 0.00 0.00 76 1008.5
20260506080515 39 0.0 0.0 0.00 0.00 0.00 75 1008.5
20260506073517 40 252 0.0 1.7 0.00 0.00 0.00 71 1008.6
20260506073017 40 0.0 1.7 0.00 0.00 0.00 71 1008.6
20260506072517 41 252 0.0 2.6 0.00 0.00 0.00 70 1008.5
20260506072017 41 299 0.9 2.6 0.00 0.00 0.00 69 1008.7
20260506071517 41 329 0.9 1.7 0.00 0.00 0.00 68 1008.6
20260506071038 42 331 0.0 2.6 0.00 0.00 0.00 68 1008.6
20260506070517 42 335 0.9 2.6 0.00 0.00 0.00 68 1008.7
20260506062517 43 327 1.7 6.1 0.00 0.00 0.00 65 1008.7
20260506062017 43 329 2.6 7.0 0.00 0.00 0.00 64 1008.7
20260506061517 43 330 2.6 7.0 0.00 0.00 0.00 63 1008.8
20260506061017 43 327 1.7 6.1 0.00 0.00 0.00 63 1008.8
20260506060517 44 312 2.6 6.1 0.00 0.00 0.00 62 1008.9
20260506051016 44 300 3.5 7.8 0.00 0.00 0.00 61 1008.8
20260506050537 44 286 4.3 7.0 0.00 0.00 0.00 61 1009.1
20260506045018 44 304 4.3 7.0 0.00 0.00 0.00 63 1008.6
20260506044516 44 303 4.3 7.0 0.00 0.00 0.00 63 1008.6
20260506044016 44 280 2.6 5.2 0.00 0.00 0.00 66 1008.6
20260506043518 44 289 1.7 3.5 0.00 0.00 0.00 66 1008.5
20260506043018 44 287 1.7 4.3 0.00 0.00 0.00 67 1008.3
20260506042518 44 311 1.7 4.3 0.00 0.00 0.00 67 1007.9
20260506042017 44 313 0.0 3.5 0.00 0.00 0.00 70 1008.1
20260506041517 44 0.0 0.0 0.00 0.00 0.00 71 1008.1
20260506041018 44 0.0 0.0 0.00 0.00 0.00 71 1008.0
20260506040517 44 0.0 0.0 0.00 0.00 0.00 71 1007.9
20260506040016 44 0.0 0.0 0.00 0.00 0.00 71 1008.0
20260506035535 44 0.0 0.0 0.00 0.00 0.00 72 1008.0
20260506035015 44 0.0 0.0 0.00 0.00 0.00 73 1008.0
20260506034515 44 0.0 0.0 0.00 0.01 0.00 73 1008.0
20260506034017 44 0.0 0.0 0.00 0.01 0.00 73 1008.0